[[{"header":{"parameterUnit":"m.s-1","parameterCategory":1,"la1":30.2991,"la2":30.254,"lo1":-89.0895,"lo2":-89.0444,"dy":0.0017,"dx":0.0017,"nx":28,"ny":28,"refTime":"2025-12-21T03:00:00:Z","depth":0,"parameterNumber":2,"parameterNumberName":"U-component_of_WINDS"},"data":[0,0,0,0,0,0,0,0,0,0,0,0,0,0,0,0,0,0,0,0,0,0,0,0,0,0,0,0,0,0,0,0,0,0,0,0,0,0,0,0,0,0,0,0,0,0,0,0,0,0,0,0,0,0,0,0,0,0,-2.5583,-2.5583,0,-2.5593,-2.5593,-2.5594,-2.5532,-2.553,-2.5529,-2.5527,-2.5538,-2.554,-2.5542,0,0,0,0,0,0,0,0,0,0,0,0,0,-2.5511,-2.5512,-2.5583,-2.5583,-2.5584,-2.5593,-2.5594,-2.5594,-2.5532,-2.553,-2.5528,-2.5526,-2.5537,-2.554,-2.5542,0,0,0,0,0,0,0,0,0,0,0,0,0,-2.5534,-2.5513,-2.5583,-2.5554,-2.5552,-2.5593,-2.5594,-2.5594,-2.5533,-2.553,-2.5528,-2.5525,-2.5537,-2.5539,-2.5542,-2.5613,0,0,-2.5551,-2.5552,0,0,0,0,0,0,0,0,-2.5533,-2.5536,-2.5558,-2.5556,-2.5553,-2.5559,-2.5572,-2.56,-2.5534,-2.554,-2.5527,-2.5524,-2.5547,-2.5549,-2.5557,-2.5613,-2.5614,-2.5551,-2.5553,-2.5554,-2.5555,0,0,0,0,0,0,0,-2.5531,-2.5536,-2.5587,-2.5559,-2.5556,-2.554,-2.5541,-2.5577,-2.5558,-2.5539,-2.5535,-2.5537,-2.5545,-2.5554,-2.5556,-2.5614,-2.5551,-2.5554,-2.5556,-2.5557,-2.5726,-2.5729,0,0,0,0,0,0,-2.5533,-2.5535,-2.5587,-2.5588,-2.5536,-2.5544,-2.5544,-2.556,-2.5558,-2.5555,-2.5539,-2.5534,-2.555,-2.5553,-2.5557,-2.5637,-2.5554,-2.5557,-2.5559,-2.5724,-2.5727,-2.573,0,0,0,0,0,0,-2.5532,-2.5539,-2.5587,-2.556,-2.5565,-2.5548,-2.5566,-2.5561,-2.557,-2.5557,-2.5554,-2.5551,-2.5548,-2.5553,-2.5599,-2.5636,-2.5558,-2.5561,-2.572,-2.5725,-2.5728,-2.5799,0,0,0,0,0,0,-2.553,-2.5538,-2.5565,-2.5561,-2.5567,-2.5629,-2.5568,-2.5563,-2.5575,-2.5568,-2.5568,-2.5566,-2.5547,-2.5595,-2.5602,-2.5639,-2.5563,-2.5717,-2.5722,-2.5727,-2.5793,-2.5805,-2.5815,0,0,0,0,0,-2.5528,-2.5585,-2.5567,-2.5573,-2.56,-2.5631,-2.5634,-2.5611,-2.5578,-2.5605,-2.5596,-2.5566,-2.5632,-2.56,-2.5607,-2.5646,-2.5714,-2.5721,-2.5727,-2.5788,-2.5803,-2.5815,0,0,0,0,0,0,-2.5595,-2.5584,-2.5564,-2.5622,-2.5628,-2.5621,-2.5653,-2.5628,-2.5643,-2.5636,-2.5607,-2.5608,-2.5658,-2.5657,-2.5622,-2.5713,-2.5667,-2.5675,-2.5711,-2.5725,-2.5736,-2.5734,-2.5566,0,0,0,0,0,-2.5617,-2.5643,-2.5632,-2.5684,-2.5688,-2.5671,-2.5683,-2.5665,-2.567,-2.5672,-2.5667,-2.5674,-2.5695,-2.5711,-2.573,-2.5793,-2.5791,-2.5824,-2.5835,-2.5844,-2.585,-2.5881,-2.5895,-2.575,-2.575,-2.575,0,0,-2.5661,-2.5659,-2.5677,-2.5698,-2.57,-2.5727,-2.5673,-2.5705,-2.5724,-2.5677,-2.5719,-2.5717,-2.5721,-2.5776,-2.5799,-2.5776,-2.589,-2.5852,-2.5859,-2.5861,-2.5889,-2.5903,-2.5915,-2.5755,-2.5754,-2.5753,0,0,-2.5756,-2.5758,-2.58,-2.5803,-2.5807,-2.5795,-2.5805,-2.5802,-2.5798,-2.584,-2.5804,-2.5828,-2.5867,-2.5871,-2.5878,-2.5974,-2.5945,-2.5981,-2.6038,-2.6069,-2.608,-2.609,-2.6122,-2.6134,-2.5988,-2.5989,-2.5989,0,-2.5811,-2.5851,-2.5825,-2.5859,-2.5868,-2.5826,-2.5868,-2.5873,-2.5884,-2.5891,-2.5865,-2.5911,-2.5912,-2.5966,-2.5989,-2.5997,-2.6007,-2.598,-2.608,-2.609,-2.6099,-2.6129,-2.6141,-2.5993,-2.5992,-2.5992,-2.5991,0,-2.5917,-2.5945,-2.5979,-2.5989,-2.6002,-2.604,-2.602,-2.6037,-2.6017,-2.6008,-2.605,-2.6049,-2.6067,-2.6079,-2.6061,-2.613,-2.6115,-2.6085,-2.6038,-2.6117,-2.6145,-2.6156,-2.5999,-2.5997,-2.5996,-2.5995,0,0,-2.6054,-2.6049,-2.6061,-2.6064,-2.6065,-2.6086,-2.6122,-2.6139,-2.6153,-2.6162,-2.619,-2.6223,-2.6195,-2.6204,-2.6186,-2.6213,-2.6286,-2.618,-2.6179,-2.6197,-2.6359,-2.6379,-2.6393,-2.6268,-2.627,-2.6271,-2.6357,0,-2.6145,-2.6204,-2.6182,-2.6243,-2.6267,-2.6228,-2.6258,-2.6262,-2.6254,-2.6273,-2.6265,-2.6288,-2.6251,-2.6255,-2.628,-2.6272,-2.6317,-2.6265,-2.6292,-2.6293,-2.6289,-2.6408,-2.643,-2.6511,-2.6368,-2.637,-2.6372,0,-2.6258,-2.627,-2.6333,-2.6328,-2.6337,-2.6365,-2.6378,-2.6398,-2.6401,-2.6393,-2.6402,-2.6378,-2.6411,-2.6366,-2.6412,-2.6377,-2.6387,-2.6384,-2.6387,-2.6386,-2.6335,-2.6408,-2.6536,-2.6548,-2.6389,-2.6387,-2.6386,0,-2.6348,-2.6381,-2.6422,-2.6426,-2.6422,-2.6442,-2.6441,-2.6442,-2.6453,-2.6464,-2.6471,-2.6487,-2.6495,-2.6507,-2.6488,-2.6457,-2.6535,-2.6489,-2.6528,-2.6529,-2.6545,-2.6543,-2.6674,-2.6555,-2.6555,-2.6555,-2.6555,0,-2.6451,-2.649,-2.6462,-2.6487,-2.653,-2.6504,-2.6547,-2.6542,-2.6543,-2.6566,-2.6534,-2.6556,-2.653,-2.655,-2.6535,-2.6574,-2.6578,-2.6572,-2.6567,-2.6573,-2.6574,-2.6577,-2.657,-2.6558,-2.6558,-2.6557,-2.6556,0,-2.6558,-2.6541,-2.6582,-2.6575,-2.6574,-2.6605,-2.6598,-2.6621,-2.6611,-2.664,-2.6646,-2.6629,-2.6651,-2.6633,-2.6655,-2.6644,-2.6695,-2.6683,-2.6693,-2.6689,-2.6728,-2.6724,-2.6863,-2.6879,-2.6754,-2.6755,-2.6756,0,-2.6623,-2.6652,-2.6647,-2.6659,-2.666,-2.6682,-2.6692,-2.6668,-2.668,-2.6685,-2.6707,-2.6726,-2.6739,-2.6776,-2.6765,-2.6781,-2.6768,-2.6816,-2.677,-2.6775,-2.6766,-2.6763,-2.6765,-2.6825,-2.6826,-2.6827,-2.6828,0,-2.6739,-2.6729,-2.6745,-2.6757,-2.6771,-2.678,-2.6787,-2.6799,-2.6774,-2.679,-2.6811,-2.6821,-2.6842,-2.686,-2.6873,-2.6872,-2.6846,-2.6843,-2.6852,-2.6858,-2.6861,-2.6857,-2.6716,-2.6839,-2.6838,-2.6838,-2.6837,-2.6837,-2.6825,-2.6848,-2.6847,-2.6866,-2.6868,-2.6875,-2.6895,-2.6887,-2.6904,-2.6918,-2.6903,-2.6928,-2.693,-2.6943,-2.6946,-2.6965,-2.6945,-2.6959,-2.6962,-2.6965,-2.697,-2.6861,-2.6967,-2.6967,-2.6967,-2.6966,-2.6966,0,-2.6937,-2.6934,-2.6952,-2.6961,-2.6976,-2.695,-2.6956,-2.6969,-2.6991,-2.6995,-2.7008,-2.7032,-2.7049,-2.7041,-2.7056,-2.7072,-2.706,-2.7077,-2.7074,-2.7074,-2.6988,-2.6977,-2.7086,-2.7086,-2.7086,-2.7086,-2.7086,-2.7086,-2.6997,-2.7033,-2.7023,-2.706,-2.7058,-2.7081,-2.7086,-2.7092,-2.7094,-2.7121,-2.7135,-2.713,-2.7128,-2.7142,-2.7157,-2.7154,-2.716,-2.718,-2.7172,-2.7092,-2.708,-2.7069,-2.7058,-2.7182,-2.7182,-2.7256,-2.7256,-2.7257]},{"header":{"parameterUnit":"m.s-1","parameterCategory":1,"la1":30.2991,"la2":30.254,"lo1":-89.0895,"lo2":-89.0444,"dy":0.0017,"dx":0.0017,"nx":28,"ny":28,"refTime":"2025-12-21T03:00:00:Z","depth":0,"parameterNumber":3,"parameterNumberName":"V-component_of_WINDS"},"data":[0,0,0,0,0,0,0,0,0,0,0,0,0,0,0,0,0,0,0,0,0,0,0,0,0,0,0,0,0,0,0,0,0,0,0,0,0,0,0,0,0,0,0,0,0,0,0,0,0,0,0,0,0,0,0,0,0,0,1.4624,1.4624,0,1.4664,1.4664,1.4664,1.4645,1.4644,1.4643,1.4642,1.4682,1.4684,1.4686,0,0,0,0,0,0,0,0,0,0,0,0,0,1.4532,1.4534,1.4624,1.4624,1.4625,1.4664,1.4664,1.4665,1.4645,1.4644,1.4642,1.4641,1.4681,1.4684,1.4686,0,0,0,0,0,0,0,0,0,0,0,0,0,1.4572,1.4535,1.4624,1.462,1.462,1.4663,1.4664,1.4665,1.4645,1.4644,1.4642,1.4641,1.4681,1.4684,1.4687,1.4737,0,0,1.4696,1.4697,0,0,0,0,0,0,0,0,1.457,1.4575,1.462,1.462,1.462,1.4648,1.4647,1.4689,1.4645,1.4635,1.4642,1.464,1.4672,1.4676,1.4686,1.4739,1.474,1.4696,1.4698,1.47,1.47,0,0,0,0,0,0,0,1.4567,1.4574,1.464,1.462,1.4621,1.4616,1.462,1.4655,1.4662,1.4636,1.4635,1.464,1.4672,1.4684,1.4687,1.4741,1.4696,1.4699,1.4701,1.4702,1.4838,1.484,0,0,0,0,0,0,1.4564,1.4571,1.4638,1.4641,1.4591,1.4619,1.4624,1.464,1.4661,1.4663,1.4641,1.4639,1.4679,1.4684,1.4689,1.4751,1.4699,1.4702,1.4704,1.4837,1.4839,1.4841,0,0,0,0,0,0,1.4562,1.4571,1.4637,1.4606,1.4614,1.4622,1.4641,1.4642,1.4654,1.4665,1.4666,1.4652,1.4678,1.4684,1.4725,1.4752,1.4704,1.4707,1.4835,1.4837,1.484,1.4874,0,0,0,0,0,0,1.456,1.457,1.4589,1.4606,1.4616,1.4673,1.4643,1.4644,1.4659,1.4656,1.4676,1.4677,1.4677,1.4721,1.4729,1.4755,1.4709,1.4832,1.4836,1.4839,1.487,1.4877,1.4883,0,0,0,0,0,1.4557,1.4596,1.459,1.4598,1.4639,1.4674,1.468,1.4679,1.4661,1.4681,1.4688,1.4677,1.4747,1.4725,1.4734,1.4761,1.4831,1.4835,1.4839,1.4868,1.4876,1.4883,0,0,0,0,0,0,1.4581,1.4598,1.4592,1.4638,1.4655,1.4671,1.4695,1.4687,1.471,1.4706,1.4704,1.4709,1.4752,1.476,1.4736,1.4812,1.4786,1.4792,1.4805,1.4813,1.482,1.4818,1.4711,0,0,0,0,0,1.4592,1.4619,1.4632,1.4672,1.4681,1.4687,1.4702,1.47,1.4717,1.4725,1.4735,1.4753,1.4779,1.4796,1.4821,1.4871,1.4876,1.4894,1.49,1.4906,1.4911,1.4941,1.495,1.4854,1.4854,1.4854,0,0,1.4615,1.4627,1.4644,1.4677,1.469,1.4719,1.4693,1.4724,1.4745,1.4729,1.477,1.4778,1.4797,1.4844,1.4865,1.4852,1.4939,1.4911,1.4915,1.4918,1.4946,1.4955,1.4963,1.4857,1.4856,1.4856,0,0,1.4671,1.4683,1.4718,1.4732,1.4752,1.4756,1.4764,1.4782,1.4787,1.4827,1.4816,1.4842,1.4886,1.4901,1.4915,1.4978,1.4969,1.4986,1.502,1.5049,1.5056,1.5063,1.5088,1.5096,1.4991,1.4991,1.4991,0,1.4697,1.474,1.4737,1.477,1.4785,1.4772,1.4809,1.4822,1.4849,1.486,1.4846,1.4903,1.4915,1.4966,1.4982,1.4992,1.5003,1.4985,1.5055,1.5062,1.5068,1.5092,1.5101,1.4993,1.4993,1.4993,1.4993,0,1.4772,1.4801,1.4827,1.4855,1.4873,1.4907,1.4911,1.4929,1.4926,1.4931,1.4974,1.4987,1.5016,1.5027,1.5023,1.5078,1.507,1.5055,1.503,1.508,1.5102,1.5111,1.4997,1.4996,1.4995,1.4995,0,0,1.4846,1.4872,1.4882,1.4895,1.4916,1.4939,1.4973,1.5001,1.5018,1.5037,1.5067,1.5105,1.5093,1.5108,1.5106,1.5131,1.5183,1.5113,1.5114,1.5128,1.5246,1.5259,1.5269,1.5176,1.5178,1.5179,1.5245,0,1.4905,1.4965,1.4965,1.5021,1.5049,1.5037,1.5067,1.5084,1.509,1.5115,1.5122,1.515,1.513,1.5139,1.5163,1.5171,1.5207,1.5166,1.5205,1.5206,1.5203,1.528,1.5293,1.5355,1.5254,1.5255,1.5256,0,1.4983,1.5006,1.5065,1.5084,1.5096,1.5123,1.5149,1.5173,1.5192,1.5195,1.5213,1.5207,1.5243,1.5215,1.5265,1.5237,1.5253,1.5259,1.5261,1.5267,1.5236,1.529,1.5375,1.5385,1.5269,1.5268,1.5267,0,1.5035,1.5079,1.5121,1.5132,1.5155,1.5174,1.5185,1.5202,1.522,1.5242,1.5254,1.528,1.5295,1.5316,1.5318,1.5297,1.5369,1.5341,1.5374,1.5374,1.5391,1.539,1.5482,1.5397,1.5397,1.5397,1.5397,0,1.5103,1.514,1.5145,1.5171,1.5212,1.5211,1.5252,1.5261,1.5277,1.5305,1.5295,1.5321,1.5321,1.5348,1.535,1.5392,1.5398,1.5403,1.5403,1.5405,1.5405,1.5417,1.5413,1.54,1.5399,1.5399,1.5398,0,1.5168,1.5172,1.5217,1.5235,1.524,1.5271,1.5286,1.5311,1.5316,1.5352,1.536,1.5368,1.54,1.5403,1.544,1.5441,1.5493,1.5487,1.5487,1.5486,1.552,1.5518,1.5624,1.5639,1.5543,1.5544,1.5544,0,1.5212,1.5241,1.5262,1.528,1.5292,1.5321,1.5339,1.5338,1.5358,1.5382,1.5405,1.5435,1.546,1.5511,1.5521,1.5549,1.5546,1.5581,1.555,1.5551,1.5549,1.5548,1.5552,1.5588,1.5589,1.559,1.559,0,1.5292,1.5293,1.5319,1.5346,1.5368,1.539,1.541,1.5425,1.5428,1.545,1.5482,1.5502,1.5539,1.5571,1.5599,1.5609,1.5601,1.56,1.5609,1.5613,1.5612,1.5615,1.5506,1.5598,1.5597,1.5596,1.5596,1.5596,1.5349,1.5375,1.5394,1.5424,1.544,1.5459,1.5484,1.5493,1.552,1.5551,1.5549,1.5585,1.5605,1.5641,1.5654,1.5683,1.5672,1.5685,1.5689,1.5692,1.5697,1.5606,1.5688,1.5688,1.5687,1.5687,1.5687,0,1.543,1.5442,1.547,1.5499,1.5523,1.5512,1.5534,1.5555,1.5588,1.5606,1.5631,1.5669,1.57,1.5712,1.5741,1.5762,1.5759,1.577,1.577,1.5773,1.5705,1.5694,1.5772,1.5772,1.5772,1.5772,1.5772,1.5772,1.5475,1.5519,1.5522,1.5574,1.5585,1.5621,1.5635,1.5653,1.5668,1.5712,1.5737,1.5745,1.5761,1.5792,1.582,1.5823,1.5835,1.5849,1.585,1.5786,1.5778,1.5769,1.576,1.5851,1.5851,1.5916,1.5917,1.5917]}]]